![]() |
EMODnet Physics ERDDAP
Easier access to scientific data |
log in|
Brought to you by EMODnet Physics |
| Dataset Title: | NDBC - Collection of dew point temperature (DEWT) TimeSeries - IN SITU MultiPointTimeSeriesObservation
|
| Institution: | NDBC (Dataset ID: TS_DEWT_NDBC) |
| Information: | Summary
| License
| FGDC
| ISO 19115
| Metadata
| Background
| Subset
| Data Access Form
| Make a graph
|
| Name | Last modified | Size | Description | |
|---|---|---|---|---|
| Parent Directory | - | - | ||
| 41024_TS_DEWT_012006.nc | 07-Dec-2024 06:55 | 422063 | ||
| 41024_TS_DEWT_012007.nc | 07-Dec-2024 06:57 | 1460551 | ||
| 41024_TS_DEWT_012008.nc | 07-Dec-2024 07:08 | 1473803 | ||
| 41024_TS_DEWT_012009.nc | 07-Dec-2024 07:10 | 1464938 | ||
| 41024_TS_DEWT_012010.nc | 07-Dec-2024 07:12 | 1469596 | ||
| 41024_TS_DEWT_012011.nc | 07-Dec-2024 07:15 | 1461699 | ||
| 41024_TS_DEWT_012012.nc | 07-Dec-2024 07:17 | 1719011 | ||
| 41024_TS_DEWT_012013.nc | 07-Dec-2024 07:19 | 1626605 | ||
| 41024_TS_DEWT_012014.nc | 07-Dec-2024 07:21 | 1163854 | ||
| 41024_TS_DEWT_012015.nc | 07-Dec-2024 07:23 | 1469798 | ||
| 41024_TS_DEWT_012016.nc | 07-Dec-2024 07:25 | 1148364 | ||
| 41024_TS_DEWT_012017.nc | 07-Dec-2024 07:28 | 1476477 | ||
| 41024_TS_DEWT_012018.nc | 07-Dec-2024 07:29 | 1464900 | ||
| 41024_TS_DEWT_012019.nc | 07-Dec-2024 07:31 | 1458149 | ||
| 41024_TS_DEWT_012020.nc | 07-Dec-2024 07:33 | 1163423 | ||
| 41024_TS_DEWT_012021.nc | 07-Dec-2024 07:35 | 997944 | ||
| 41024_TS_DEWT_012022.nc | 07-Dec-2024 07:37 | 1471903 | ||
| 41024_TS_DEWT_012023.nc | 07-Dec-2024 07:47 | 1477325 | ||
| 41024_TS_DEWT_012025.nc | 07-Feb-2025 12:08 | 1624388 | ||
| 41024_TS_DEWT_012026.nc | 02-Feb-2026 20:29 | 1625197 | ||
| 41024_TS_DEWT_022005.nc | 07-Dec-2024 06:53 | 1476453 | ||
| 41024_TS_DEWT_022006.nc | 07-Dec-2024 06:55 | 1625755 | ||
| 41024_TS_DEWT_022007.nc | 07-Dec-2024 06:57 | 1626539 | ||
| 41024_TS_DEWT_022008.nc | 07-Dec-2024 07:08 | 1625458 | ||
| 41024_TS_DEWT_022009.nc | 07-Dec-2024 07:10 | 1626374 | ||
| 41024_TS_DEWT_022010.nc | 07-Dec-2024 07:12 | 1830890 | ||
| 41024_TS_DEWT_022011.nc | 07-Dec-2024 07:15 | 1833968 | ||
| 41024_TS_DEWT_022012.nc | 07-Dec-2024 07:17 | 1826683 | ||
| 41024_TS_DEWT_022013.nc | 07-Dec-2024 07:19 | 1826894 | ||
| 41024_TS_DEWT_022014.nc | 07-Dec-2024 07:21 | 1677935 | ||
| 41024_TS_DEWT_022015.nc | 07-Dec-2024 07:23 | 1677789 | ||
| 41024_TS_DEWT_022016.nc | 07-Dec-2024 07:25 | 1836751 | ||
| 41024_TS_DEWT_022017.nc | 07-Dec-2024 07:28 | 1834968 | ||
| 41024_TS_DEWT_022018.nc | 07-Dec-2024 07:30 | 5055744 | ||
| 41024_TS_DEWT_022019.nc | 07-Dec-2024 07:31 | 3807748 | ||
| 41024_TS_DEWT_022020.nc | 07-Dec-2024 07:33 | 995629 | ||
| 41024_TS_DEWT_022021.nc | 07-Dec-2024 07:35 | 1462491 | ||
| 41024_TS_DEWT_022022.nc | 07-Dec-2024 07:37 | 1464565 | ||
| 41024_TS_DEWT_022023.nc | 07-Dec-2024 07:49 | 1472829 | ||
| 41024_TS_DEWT_022025.nc | 01-Mar-2025 09:15 | 1467857 | ||
| 41024_TS_DEWT_022026.nc | 01-Mar-2026 12:26 | 1466976 | ||
| 41024_TS_DEWT_032005.nc | 07-Dec-2024 06:53 | 1469799 | ||
| 41024_TS_DEWT_032006.nc | 07-Dec-2024 06:55 | 1466460 | ||
| 41024_TS_DEWT_032007.nc | 07-Dec-2024 06:58 | 1469888 | ||
| 41024_TS_DEWT_032008.nc | 07-Dec-2024 07:09 | 1469609 | ||
| 41024_TS_DEWT_032009.nc | 07-Dec-2024 07:10 | 1646101 | ||
| 41024_TS_DEWT_032010.nc | 07-Dec-2024 07:13 | 1665343 | ||
| 41024_TS_DEWT_032011.nc | 07-Dec-2024 07:15 | 1651095 | ||
| 41024_TS_DEWT_032012.nc | 07-Dec-2024 07:17 | 1654177 | ||
| 41024_TS_DEWT_032013.nc | 07-Dec-2024 07:20 | 1650871 | ||
| 41024_TS_DEWT_032014.nc | 07-Dec-2024 07:22 | 1658610 | ||
| 41024_TS_DEWT_032015.nc | 07-Dec-2024 07:24 | 418875 | ||
| 41024_TS_DEWT_032016.nc | 07-Dec-2024 07:26 | 1659797 | ||
| 41024_TS_DEWT_032017.nc | 07-Dec-2024 07:28 | 3280213 | ||
| 41024_TS_DEWT_032018.nc | 07-Dec-2024 07:30 | 4829509 | ||
| 41024_TS_DEWT_032019.nc | 07-Dec-2024 07:31 | 995528 | ||
| 41024_TS_DEWT_032020.nc | 07-Dec-2024 07:33 | 1473187 | ||
| 41024_TS_DEWT_032021.nc | 07-Dec-2024 07:35 | 1472298 | ||
| 41024_TS_DEWT_032022.nc | 07-Dec-2024 07:37 | 1477538 | ||
| 41024_TS_DEWT_032023.nc | 07-Dec-2024 07:50 | 1625834 | ||
| 41024_TS_DEWT_032025.nc | 02-Apr-2025 07:28 | 1473331 | ||
| 41024_TS_DEWT_032026.nc | 24-Mar-2026 12:33 | 1624324 | ||
| 41024_TS_DEWT_042005.nc | 07-Dec-2024 06:53 | 1626708 | ||
| 41024_TS_DEWT_042006.nc | 07-Dec-2024 06:56 | 1626628 | ||
| 41024_TS_DEWT_042007.nc | 07-Dec-2024 06:58 | 1709359 | ||
| 41024_TS_DEWT_042008.nc | 07-Dec-2024 07:09 | 1666401 | ||
| 41024_TS_DEWT_042009.nc | 07-Dec-2024 07:11 | 1820401 | ||
| 41024_TS_DEWT_042010.nc | 07-Dec-2024 07:13 | 1823898 | ||
| 41024_TS_DEWT_042011.nc | 07-Dec-2024 07:15 | 1830874 | ||
| 41024_TS_DEWT_042012.nc | 07-Dec-2024 07:18 | 1827098 | ||
| 41024_TS_DEWT_042013.nc | 07-Dec-2024 07:20 | 1679094 | ||
| 41024_TS_DEWT_042014.nc | 07-Dec-2024 07:22 | 1837281 | ||
| 41024_TS_DEWT_042015.nc | 07-Dec-2024 07:24 | 4505137 | ||
| 41024_TS_DEWT_042016.nc | 07-Dec-2024 07:26 | 3653262 | ||
| 41024_TS_DEWT_042017.nc | 07-Dec-2024 07:28 | 1148117 | ||
| 41024_TS_DEWT_042018.nc | 07-Dec-2024 07:30 | 1466308 | ||
| 41024_TS_DEWT_042019.nc | 07-Dec-2024 07:32 | 1474338 | ||
| 41024_TS_DEWT_042020.nc | 07-Dec-2024 07:33 | 1476706 | ||
| 41024_TS_DEWT_042021.nc | 07-Dec-2024 07:36 | 1470830 | ||
| 41024_TS_DEWT_042022.nc | 07-Dec-2024 07:37 | 1476125 | ||
| 41024_TS_DEWT_042023.nc | 07-Dec-2024 07:51 | 1477061 | ||
| 41024_TS_DEWT_042025.nc | 01-May-2025 04:47 | 1476903 | ||
| 41024_TS_DEWT_052005.nc | 07-Dec-2024 06:53 | 1476818 | ||
| 41024_TS_DEWT_052006.nc | 07-Dec-2024 06:56 | 1677705 | ||
| 41024_TS_DEWT_052007.nc | 07-Dec-2024 06:58 | 1660269 | ||
| 41024_TS_DEWT_052009.nc | 07-Dec-2024 07:11 | 1669110 | ||
| 41024_TS_DEWT_052010.nc | 07-Dec-2024 07:13 | 1671654 | ||
| 41024_TS_DEWT_052011.nc | 07-Dec-2024 07:16 | 1677418 | ||
| 41024_TS_DEWT_052012.nc | 07-Dec-2024 07:18 | 1632896 | ||
| 41024_TS_DEWT_052013.nc | 07-Dec-2024 07:20 | 1672169 | ||
| 41024_TS_DEWT_052014.nc | 07-Dec-2024 07:22 | 1675658 | ||
| 41024_TS_DEWT_052015.nc | 07-Dec-2024 07:24 | 4807980 | ||
| 41024_TS_DEWT_052016.nc | 07-Dec-2024 07:26 | 1474437 | ||
| 41024_TS_DEWT_052017.nc | 07-Dec-2024 07:28 | 1465057 | ||
| 41024_TS_DEWT_052018.nc | 07-Dec-2024 07:30 | 1624638 | ||
| 41024_TS_DEWT_052019.nc | 07-Dec-2024 07:32 | 1477726 | ||
| 41024_TS_DEWT_052020.nc | 07-Dec-2024 07:34 | 1626599 | ||
| 41024_TS_DEWT_052021.nc | 07-Dec-2024 07:36 | 1626892 | ||
| 41024_TS_DEWT_052022.nc | 07-Dec-2024 07:38 | 1626857 | ||
| 41024_TS_DEWT_052023.nc | 07-Dec-2024 07:51 | 1626719 | ||
| 41024_TS_DEWT_052025.nc | 01-Jun-2025 04:58 | 1625794 | ||
| 41024_TS_DEWT_062005.nc | 07-Dec-2024 06:54 | 1831077 | ||
| 41024_TS_DEWT_062006.nc | 07-Dec-2024 06:56 | 1675756 | ||
| 41024_TS_DEWT_062007.nc | 07-Dec-2024 07:00 | 1790633 | ||
| 41024_TS_DEWT_062009.nc | 07-Dec-2024 07:11 | 1833988 | ||
| 41024_TS_DEWT_062010.nc | 07-Dec-2024 07:13 | 1829320 | ||
| 41024_TS_DEWT_062011.nc | 07-Dec-2024 07:16 | 1827798 | ||
| 41024_TS_DEWT_062012.nc | 07-Dec-2024 07:18 | 1680250 | ||
| 41024_TS_DEWT_062013.nc | 07-Dec-2024 07:20 | 1832458 | ||
| 41024_TS_DEWT_062014.nc | 07-Dec-2024 07:22 | 1840086 | ||
| 41024_TS_DEWT_062015.nc | 07-Dec-2024 07:24 | 5569199 | ||
| 41024_TS_DEWT_062016.nc | 07-Dec-2024 07:26 | 1464962 | ||
| 41024_TS_DEWT_062017.nc | 07-Dec-2024 07:28 | 1473337 | ||
| 41024_TS_DEWT_062018.nc | 07-Dec-2024 07:30 | 1470622 | ||
| 41024_TS_DEWT_062019.nc | 07-Dec-2024 07:32 | 1474154 | ||
| 41024_TS_DEWT_062020.nc | 07-Dec-2024 07:34 | 1476954 | ||
| 41024_TS_DEWT_062021.nc | 07-Dec-2024 07:36 | 1476083 | ||
| 41024_TS_DEWT_062022.nc | 07-Dec-2024 07:38 | 1475782 | ||
| 41024_TS_DEWT_062023.nc | 07-Dec-2024 07:51 | 1476803 | ||
| 41024_TS_DEWT_062025.nc | 01-Jul-2025 05:05 | 1476209 | ||
| 41024_TS_DEWT_072005.nc | 07-Dec-2024 06:54 | 1675460 | ||
| 41024_TS_DEWT_072006.nc | 07-Dec-2024 06:56 | 1675131 | ||
| 41024_TS_DEWT_072007.nc | 07-Dec-2024 07:02 | 1635702 | ||
| 41024_TS_DEWT_072009.nc | 07-Dec-2024 07:11 | 1679920 | ||
| 41024_TS_DEWT_072010.nc | 07-Dec-2024 07:13 | 1676551 | ||
| 41024_TS_DEWT_072011.nc | 07-Dec-2024 07:16 | 1664842 | ||
| 41024_TS_DEWT_072012.nc | 07-Dec-2024 07:18 | 1668940 | ||
| 41024_TS_DEWT_072013.nc | 07-Dec-2024 07:20 | 1674358 | ||
| 41024_TS_DEWT_072014.nc | 07-Dec-2024 07:22 | 1673395 | ||
| 41024_TS_DEWT_072015.nc | 07-Dec-2024 07:24 | 2272562 | ||
| 41024_TS_DEWT_072016.nc | 07-Dec-2024 07:26 | 1473567 | ||
| 41024_TS_DEWT_072017.nc | 07-Dec-2024 07:29 | 1477150 | ||
| 41024_TS_DEWT_072018.nc | 07-Dec-2024 07:30 | 1475961 | ||
| 41024_TS_DEWT_072019.nc | 07-Dec-2024 07:32 | 1626856 | ||
| 41024_TS_DEWT_072020.nc | 07-Dec-2024 07:34 | 1626762 | ||
| 41024_TS_DEWT_072021.nc | 07-Dec-2024 07:36 | 1626327 | ||
| 41024_TS_DEWT_072022.nc | 07-Dec-2024 07:38 | 1626781 | ||
| 41024_TS_DEWT_072023.nc | 07-Dec-2024 07:51 | 1473392 | ||
| 41024_TS_DEWT_072025.nc | 01-Aug-2025 05:14 | 1625736 | ||
| 41024_TS_DEWT_082005.nc | 07-Dec-2024 06:54 | 1830158 | ||
| 41024_TS_DEWT_082006.nc | 07-Dec-2024 06:56 | 1827388 | ||
| 41024_TS_DEWT_082007.nc | 07-Dec-2024 07:03 | 1647854 | ||
| 41024_TS_DEWT_082009.nc | 07-Dec-2024 07:11 | 1825472 | ||
| 41024_TS_DEWT_082010.nc | 07-Dec-2024 07:14 | 1829203 | ||
| 41024_TS_DEWT_082011.nc | 07-Dec-2024 07:16 | 1675146 | ||
| 41024_TS_DEWT_082012.nc | 07-Dec-2024 07:18 | 1643490 | ||
| 41024_TS_DEWT_082013.nc | 07-Dec-2024 07:21 | 1830319 | ||
| 41024_TS_DEWT_082014.nc | 07-Dec-2024 07:23 | 1829910 | ||
| 41024_TS_DEWT_082015.nc | 07-Dec-2024 07:24 | 1782281 | ||
| 41024_TS_DEWT_082016.nc | 07-Dec-2024 07:26 | 1463376 | ||
| 41024_TS_DEWT_082017.nc | 07-Dec-2024 07:29 | 1475626 | ||
| 41024_TS_DEWT_082018.nc | 07-Dec-2024 07:30 | 1472005 | ||
| 41024_TS_DEWT_082019.nc | 07-Dec-2024 07:32 | 1626707 | ||
| 41024_TS_DEWT_082020.nc | 07-Dec-2024 07:34 | 1626766 | ||
| 41024_TS_DEWT_082021.nc | 07-Dec-2024 07:36 | 1626681 | ||
| 41024_TS_DEWT_082022.nc | 07-Dec-2024 07:39 | 1626896 | ||
| 41024_TS_DEWT_082023.nc | 07-Dec-2024 07:51 | 1626872 | ||
| 41024_TS_DEWT_082025.nc | 01-Sep-2025 05:03 | 1625958 | ||
| 41024_TS_DEWT_092005.nc | 07-Dec-2024 06:54 | 1833330 | ||
| 41024_TS_DEWT_092006.nc | 07-Dec-2024 06:57 | 1675959 | ||
| 41024_TS_DEWT_092007.nc | 07-Dec-2024 07:05 | 1821212 | ||
| 41024_TS_DEWT_092009.nc | 07-Dec-2024 07:11 | 1832016 | ||
| 41024_TS_DEWT_092010.nc | 07-Dec-2024 07:14 | 1672727 | ||
| 41024_TS_DEWT_092011.nc | 07-Dec-2024 07:16 | 1679584 | ||
| 41024_TS_DEWT_092012.nc | 07-Dec-2024 07:18 | 1828639 | ||
| 41024_TS_DEWT_092013.nc | 07-Dec-2024 07:21 | 1833289 | ||
| 41024_TS_DEWT_092014.nc | 07-Dec-2024 07:23 | 1832164 | ||
| 41024_TS_DEWT_092015.nc | 07-Dec-2024 07:25 | 3789442 | ||
| 41024_TS_DEWT_092016.nc | 07-Dec-2024 07:27 | 904857 | ||
| 41024_TS_DEWT_092017.nc | 07-Dec-2024 07:29 | 1475978 | ||
| 41024_TS_DEWT_092018.nc | 07-Dec-2024 07:31 | 1474915 | ||
| 41024_TS_DEWT_092019.nc | 07-Dec-2024 07:32 | 1474267 | ||
| 41024_TS_DEWT_092020.nc | 07-Dec-2024 07:34 | 1476069 | ||
| 41024_TS_DEWT_092021.nc | 07-Dec-2024 07:36 | 1471392 | ||
| 41024_TS_DEWT_092022.nc | 07-Dec-2024 07:41 | 1476931 | ||
| 41024_TS_DEWT_092023.nc | 07-Dec-2024 07:51 | 1476860 | ||
| 41024_TS_DEWT_092025.nc | 01-Oct-2025 04:49 | 1476167 | ||
| 41024_TS_DEWT_102005.nc | 07-Dec-2024 06:55 | 1669014 | ||
| 41024_TS_DEWT_102006.nc | 07-Dec-2024 06:57 | 1675481 | ||
| 41024_TS_DEWT_102007.nc | 07-Dec-2024 07:06 | 1667847 | ||
| 41024_TS_DEWT_102008.nc | 07-Dec-2024 07:09 | 1675435 | ||
| 41024_TS_DEWT_102009.nc | 07-Dec-2024 07:12 | 1670584 | ||
| 41024_TS_DEWT_102010.nc | 07-Dec-2024 07:14 | 1661087 | ||
| 41024_TS_DEWT_102011.nc | 07-Dec-2024 07:17 | 1673426 | ||
| 41024_TS_DEWT_102012.nc | 07-Dec-2024 07:19 | 1675266 | ||
| 41024_TS_DEWT_102013.nc | 07-Dec-2024 07:21 | 1675571 | ||
| 41024_TS_DEWT_102014.nc | 07-Dec-2024 07:23 | 4792619 | ||
| 41024_TS_DEWT_102015.nc | 07-Dec-2024 07:25 | 429656 | ||
| 41024_TS_DEWT_102016.nc | 07-Dec-2024 07:27 | 1471923 | ||
| 41024_TS_DEWT_102017.nc | 07-Dec-2024 07:29 | 1477609 | ||
| 41024_TS_DEWT_102018.nc | 07-Dec-2024 07:31 | 1477528 | ||
| 41024_TS_DEWT_102019.nc | 07-Dec-2024 07:32 | 1476334 | ||
| 41024_TS_DEWT_102020.nc | 07-Dec-2024 07:35 | 1625562 | ||
| 41024_TS_DEWT_102021.nc | 07-Dec-2024 07:36 | 1477455 | ||
| 41024_TS_DEWT_102022.nc | 07-Dec-2024 07:43 | 1473695 | ||
| 41024_TS_DEWT_102023.nc | 07-Dec-2024 07:52 | 1477431 | ||
| 41024_TS_DEWT_102024.nc | 12-Jan-2025 20:57 | 1476780 | ||
| 41024_TS_DEWT_102025.nc | 01-Nov-2025 07:53 | 1673276 | ||
| 41024_TS_DEWT_112005.nc | 07-Dec-2024 06:55 | 1833435 | ||
| 41024_TS_DEWT_112006.nc | 07-Dec-2024 06:57 | 1672608 | ||
| 41024_TS_DEWT_112007.nc | 07-Dec-2024 07:08 | 1827284 | ||
| 41024_TS_DEWT_112008.nc | 07-Dec-2024 07:09 | 1831338 | ||
| 41024_TS_DEWT_112009.nc | 07-Dec-2024 07:12 | 1674590 | ||
| 41024_TS_DEWT_112010.nc | 07-Dec-2024 07:14 | 1824459 | ||
| 41024_TS_DEWT_112011.nc | 07-Dec-2024 07:17 | 1601121 | ||
| 41024_TS_DEWT_112012.nc | 07-Dec-2024 07:19 | 1835555 | ||
| 41024_TS_DEWT_112013.nc | 07-Dec-2024 07:21 | 5682452 | ||
| 41024_TS_DEWT_112014.nc | 07-Dec-2024 07:23 | 428814 | ||
| 41024_TS_DEWT_112015.nc | 07-Dec-2024 07:25 | 1471278 | ||
| 41024_TS_DEWT_112016.nc | 07-Dec-2024 07:27 | 1476272 | ||
| 41024_TS_DEWT_112017.nc | 07-Dec-2024 07:29 | 1476391 | ||
| 41024_TS_DEWT_112018.nc | 07-Dec-2024 07:31 | 1476926 | ||
| 41024_TS_DEWT_112019.nc | 07-Dec-2024 07:33 | 1476171 | ||
| 41024_TS_DEWT_112020.nc | 07-Dec-2024 07:35 | 1476856 | ||
| 41024_TS_DEWT_112021.nc | 07-Dec-2024 07:37 | 1476719 | ||
| 41024_TS_DEWT_112022.nc | 07-Dec-2024 07:44 | 1476229 | ||
| 41024_TS_DEWT_112023.nc | 07-Dec-2024 07:52 | 1476109 | ||
| 41024_TS_DEWT_112024.nc | 17-Jan-2025 15:14 | 1672756 | ||
| 41024_TS_DEWT_112025.nc | 01-Dec-2025 09:55 | 1670746 | ||
| 41024_TS_DEWT_122005.nc | 07-Dec-2024 06:55 | 1657524 | ||
| 41024_TS_DEWT_122006.nc | 07-Dec-2024 06:57 | 1672186 | ||
| 41024_TS_DEWT_122007.nc | 07-Dec-2024 07:08 | 1674712 | ||
| 41024_TS_DEWT_122008.nc | 07-Dec-2024 07:10 | 1660600 | ||
| 41024_TS_DEWT_122009.nc | 07-Dec-2024 07:12 | 1663121 | ||
| 41024_TS_DEWT_122010.nc | 07-Dec-2024 07:15 | 1681305 | ||
| 41024_TS_DEWT_122011.nc | 07-Dec-2024 07:17 | 1676919 | ||
| 41024_TS_DEWT_122012.nc | 07-Dec-2024 07:19 | 6040684 | ||
| 41024_TS_DEWT_122013.nc | 07-Dec-2024 07:21 | 5681015 | ||
| 41024_TS_DEWT_122014.nc | 07-Dec-2024 07:23 | 428320 | ||
| 41024_TS_DEWT_122015.nc | 07-Dec-2024 07:25 | 1473838 | ||
| 41024_TS_DEWT_122016.nc | 07-Dec-2024 07:27 | 1625760 | ||
| 41024_TS_DEWT_122017.nc | 07-Dec-2024 07:29 | 1626640 | ||
| 41024_TS_DEWT_122018.nc | 07-Dec-2024 07:31 | 1625468 | ||
| 41024_TS_DEWT_122019.nc | 07-Dec-2024 07:33 | 1476438 | ||
| 41024_TS_DEWT_122020.nc | 07-Dec-2024 07:35 | 1626832 | ||
| 41024_TS_DEWT_122021.nc | 07-Dec-2024 07:37 | 1626668 | ||
| 41024_TS_DEWT_122022.nc | 07-Dec-2024 07:46 | 1626469 | ||
| 41024_TS_DEWT_122023.nc | 07-Dec-2024 07:52 | 1626591 | ||
| 41024_TS_DEWT_122024.nc | 22-Jan-2025 16:45 | 1827846 | ||
| 41024_TS_DEWT_122025.nc | 01-Jan-2026 09:32 | 1832446 | ||